SCP
1 1 1 1 1 1 1 1 1 1 1 1 1 1 0 0 0 0 0 0 0 0 0 0 0 0 0 0 0 0 0 0 0 0 0 0 0 0 0 0 0 0 0
1 1 1 1 1 1 1 1 1 1 1 0 0 1 1 0 0 0 0 0 0 0 0 0 0 0 0 0 0 0 0 0 0 0 0 0 0 0 0 0 0 0 0
1 1 1 1 1 1 1 1 1 1 1 0 0 0 0 0 0 0 0 0 0 0 0 0 0 0 0 0 0 0 0 0 0 0 0 0 0 0 0 0 0 0 0
1 1 1 1 1 1 1 1 1 1 1 0 0 0 0 0 0 0 0 0 0 0 0 0 0 0 0 0 0 0 0 0 0 0 0 0 0 0 0 0 0 0 0
0 0 1 1 1 1 1 1 1 1 1 0 0 0 0 0 0 0 0 0 0 0 0 0 0 0 0 0 0 0 0 0 0 0 0 0 0 0 0 0 0 0 0
0 0 0 0 0 0 0 1 1 1 1 0 0 0 0 0 0 0 0 0 0 0 0 0 0 0 0 0 0 0 0 0 0 0 0 0 0 0 0 0 0 0 0
0 0 0 0 0 0 0 0 0 1 1 1 0 0 0 0 0 0 0 0 0 0 0 0 0 0 0 0 0 0 0 0 0 0 0 0 0 0 0 0 0 0 0
0 0 0 0 0 0 0 0 0 1 1 1 0 0 0 0 0 0 0 0 0 0 0 0 0 0 0 0 0 0 0 0 0 0 0 0 0 0 0 0 0 0 0
0 0 0 0 0 0 0 0 0 0 1 1 1 0 0 0 0 0 0 0 0 0 0 0 0 0 0 0 0 0 0 0 0 0 0 0 0 0 0 0 0 0 0
0 0 0 0 0 0 0 0 0 0 0 0 0 0 0 0 0 0 0 0 0 0 0 0 0 0 0 0 0 0 0 0 0 0 0 0 0 0 0 0 0 0 0
0 0 0 0 0 0 0 0 0 0 0 0 0 0 0 0 0 0 0 0 0 0 0 0 0 0 0 0 0 0 0 0 0 0 0 0 0 0 0 0 0 0 0
0 0 0 0 0 0 0 0 0 0 0 0 0 0 0 0 0 0 0 0 0 0 0 0 0 0 0 0 0 0 0 0 0 0 0 0 0 0 0 0 0 0 0
1 0 0 0 0 0 0 0 0 0 0 0 0 0 0 0 0 0 0 0 0 0 0 0 0 0 0 0 0 0 0 0 0 0 0 0 0 0 0 0 0 0 0
1 1 0 0 0 0 0 0 0 0 0 0 0 0 0 0 0 0 0 0 0 0 0 0 0 0 0 0 0 0 0 0 0 0 0 0 0 0 0 0 0 0 0
1 1 1 0 0 0 0 0 0 0 0 0 0 0 0 0 0 0 0 0 0 0 0 0 0 0 0 0 0 0 0 0 0 0 0 0 0 0 0 0 0 0 0
1 1 1 1 0 0 0 0 0 0 0 0 0 0 0 0 0 0 0 0 0 0 0 0 0 0 0 0 0 0 0 0 0 0 0 0 0 0 0 0 0 0 0
1 1 1 1 1 0 0 0 0 0 0 0 0 0 0 0 0 0 0 0 0 0 0 0 0 0 0 0 0 0 0 0 0 0 0 0 0 0 0 0 0 0 0
1 1 1 1 1 0 0 0 0 0 0 0 0 0 0 0 0 0 0 0 0 0 0 0 0 0 0 0 0 0 0 0 0 0 0 0 0 0 0 0 0 0 0
1 1 1 1 0 0 0 0 0 1 1 0 0 0 0 0 0 0 1 1 1 1 0 0 0 0 0 0 0 0 0 0 0 0 0 0 0 0 0 0 0 0 0
1 1 1 1 0 0 0 0 1 1 1 0 0 0 0 0 0 0 1 1 1 0 0 0 0 0 0 0 0 0 0 0 0 0 0 0 0 0 0 0 0 0 0
1 1 1 1 0 0 0 1 1 1 0 0 0 0 0 0 0 0 0 0 0 0 0 0 0 0 0 0 0 0 0 0 0 0 0 0 0 0 0 0 0 0 0
1 1 1 0 0 0 1 1 0 0 0 0 0 0 0 0 0 0 0 0 0 0 0 0 0 0 0 0 0 0 0 0 0 0 0 0 0 0 0 0 0 0 0
0 0 0 0 0 0 0 0 0 0 0 0 0 0 0 0 0 0 0 0 0 0 0 0 0 0 0 0 0 0 0 0 0 0 0 0 0 0 0 -0 0 0 0
0 0 0 0 0 0 0 0 0 0 0 0 0 0 0 0 0 0 0 0 0 0 0 0 0 0 0 0 0 0 0 0 0 0 0 0 0 0 0 0 0 0 0
0 0 0 0 0 0 0 0 0 0 0 0 0 0 0 0 0 0 0 0 0 0 0 0 0 0 0 0 0 0 0 0 0 0 0 0 0 0 0 0 0 0 0
0 0 0 0 0 0 0 0 0 0 0 0 0 0 0 0 0 0 0 0 0 0 0 0 0 0 0 0 0 0 0 0 0 0 0 0 0 0 0 0 0 0 0
Wind_Speed
8 10 10 11 12 12 13 13 13 12 10 8 8 8 7 6 6 6 7 7 7 7 6 5 5 4 4 4 5 4 5 4 3 2 3 4 5 4 4 5 4 5 6
9 10 11 11 12 13 13 13 13 12 11 8 7 6 6 5 5 5 6 7 7 7 7 6 5 5 3 4 4 4 3 4 4 3 3 4 5 5 5 5 5 5 5
9 10 11 11 11 12 13 12 13 12 12 10 7 6 5 5 6 6 6 7 7 7 6 7 6 5 6 5 6 6 6 4 4 3 3 3 2 4 5 4 4 4 4
8 9 10 10 11 11 12 12 12 12 11 11 10 11 9 8 8 6 6 7 7 7 7 7 6 6 5 4 7 6 5 5 4 4 3 3 3 2 3 5 5 5 5
8 9 9 9 9 10 10 10 11 11 12 12 11 11 10 8 6 6 7 7 6 7 7 7 6 6 5 5 5 4 5 5 5 4 4 3 2 4 2 2 4 5 4
7 8 7 8 8 9 9 10 11 11 11 12 12 12 11 9 9 8 8 8 6 6 8 7 6 7 5 5 6 5 6 4 3 3 3 4 4 4 2 2 4 4 4
7 8 8 8 8 9 10 11 11 11 11 11 11 12 11 11 11 9 8 8 7 7 8 8 7 6 5 5 5 5 4 5 4 5 4 3 3 2 3 3 2 2 3
8 8 8 8 8 9 10 10 11 11 11 11 10 10 11 9 8 9 8 7 6 7 8 8 7 7 7 6 5 5 5 4 5 5 3 3 2 2 3 3 3 3 3
8 8 8 8 8 8 9 9 10 10 10 10 9 9 9 9 8 8 8 7 6 6 8 8 8 7 7 6 6 4 4 4 5 5 5 4 2 3 3 3 4 4 4
9 9 8 8 8 8 8 8 9 9 9 9 8 7 8 8 8 8 8 8 7 7 8 8 8 8 7 7 6 5 5 5 3 2 1 2 2 1 2 2 3 4 4
9 9 8 8 8 8 8 8 8 8 8 8 8 7 7 8 8 8 8 8 8 8 9 8 8 8 8 7 6 5 5 5 4 4 4 2 1 1 1 1 2 2 3
9 9 9 8 8 7 7 7 8 8 7 7 7 7 7 7 8 8 8 8 8 8 8 8 8 8 7 7 7 6 6 6 5 4 4 3 2 1 1 1 1 1 2
9 9 9 8 8 7 7 7 7 7 7 7 7 7 7 7 7 7 8 8 7 7 7 7 7 7 7 7 6 5 5 4 4 3 3 3 3 2 2 2 2 1 1
9 9 9 8 7 7 6 6 6 6 7 7 7 7 7 7 7 7 7 7 7 7 7 7 6 6 6 6 6 6 6 6 6 5 5 5 5 4 4 3 3 2 2
9 9 8 8 8 7 7 6 6 6 6 7 7 7 7 6 7 7 7 7 7 7 7 6 6 5 5 5 7 8 8 8 8 8 8 9 11 12 8 5 4 3 2
9 8 8 8 8 7 7 6 6 6 6 7 7 7 7 7 7 7 7 8 7 7 7 7 7 6 5 9 10 9 9 9 9 9 9 10 11 14 16 17 16 12 6
7 7 7 7 6 6 6 6 6 6 7 7 7 7 7 7 8 8 8 8 8 8 8 8 8 8 9 13 13 12 9 9 8 8 7 7 9 9 10 12 13 14 14
6 5 5 5 5 6 6 6 6 7 7 7 7 7 7 7 7 8 8 8 7 8 8 8 9 9 10 13 14 14 11 10 9 8 8 8 8 7 7 8 9 9 9
5 4 4 4 4 5 6 6 7 7 7 7 7 7 8 8 8 9 9 8 8 9 8 9 10 11 11 11 13 12 10 10 10 9 9 9 9 7 5 8 8 8 7
4 4 4 4 4 4 5 7 7 7 7 7 7 7 7 8 9 9 9 9 9 10 9 10 9 10 10 10 10 10 8 9 9 8 9 10 9 8 5 6 7 7 6
4 3 3 3 3 4 5 6 6 6 6 7 7 7 8 8 9 9 9 10 10 10 10 11 9 9 9 9 8 7 7 8 9 8 8 8 10 11 10 8 7 5 2
4 4 3 3 3 3 5 6 6 6 6 7 8 8 9 8 9 11 10 10 11 12 11 11 10 8 8 8 9 10 8 7 9 8 9 9 11 11 10 8 5 3 4
4 3 4 4 3 2 3 5 5 7 8 8 9 9 10 9 9 10 11 9 9 9 9 9 9 8 7 9 12 13 12 11 9 9 13 12 11 11 9 7 1 2 3
3 3 4 4 3 3 3 4 6 7 9 10 10 10 10 10 9 7 7 7 7 8 8 9 9 9 7 7 8 9 10 13 12 11 12 10 6 6 6 5 2 4 5
3 3 4 4 4 4 4 5 6 8 10 11 10 10 10 10 10 9 7 7 7 6 8 8 9 9 9 7 7 7 7 7 8 9 7 6 5 5 5 4 4 4 3
4 4 4 5 4 4 5 5 7 9 11 10 10 9 9 9 10 11 12 18 15 17 15 12 10 10 12 12 11 11 11 9 5 4 6 5 4 4 4 4 3 3 4
Wind_Direction
175 173 176 179 179 182 182 185 186 181 181 180 184 186 187 190 193 197 192 198 203 192 202 209 176 207 199 203 199 194 187 201 183 191 183 190 194 183 187 208 195 188 200
169 172 175 180 184 185 187 189 189 184 185 185 187 188 186 192 197 194 187 202 201 197 196 208 202 196 196 201 209 209 216 190 184 215 205 192 181 195 196 191 200 202 197
177 174 179 183 186 188 189 189 188 185 187 183 180 178 177 191 192 194 191 198 199 202 207 201 215 198 211 193 205 206 213 207 192 218 243 238 198 166 170 195 192 193 202
178 178 181 186 190 190 188 186 187 186 185 186 188 187 193 197 197 195 187 190 198 201 203 206 207 210 216 191 208 202 213 214 206 189 243 297 353 254 168 184 179 183 198
176 180 183 186 189 187 184 181 182 185 188 194 194 196 202 201 193 192 186 196 194 201 205 204 202 204 213 206 220 190 223 213 221 206 197 196 205 248 239 174 174 174 180
173 172 173 176 182 182 180 179 179 185 188 193 197 200 202 201 197 196 189 198 193 195 199 202 201 207 207 199 209 207 206 231 232 247 221 212 213 228 229 204 201 179 161
170 167 170 174 177 180 178 176 178 184 188 192 196 200 200 201 203 202 198 202 196 193 194 198 199 205 200 204 206 205 213 205 205 226 233 236 244 256 262 265 238 201 168
168 165 165 168 174 176 177 177 178 184 188 192 197 200 201 205 205 205 201 204 205 197 186 193 193 195 197 202 197 204 200 200 207 214 232 246 249 259 260 273 272 243 214
164 161 160 162 166 170 172 176 178 184 190 192 193 198 202 209 206 198 201 202 202 195 187 190 189 190 191 196 197 205 200 195 206 197 194 231 220 244 256 267 276 281 267
166 160 160 163 162 163 165 171 177 184 188 189 193 195 199 201 198 196 195 197 196 192 185 189 188 188 186 186 198 192 189 191 195 211 186 237 235 241 257 267 271 283 291
165 160 157 156 159 160 163 168 174 181 185 186 188 193 196 195 192 191 192 191 190 186 187 190 186 187 186 185 190 197 179 190 180 183 178 190 292 257 259 272 286 297 299
157 157 153 154 161 164 165 169 174 179 182 182 182 184 190 194 192 190 188 185 185 184 184 185 184 187 183 181 185 191 181 183 177 176 167 169 160 152 326 344 347 359 344
156 156 158 162 164 165 166 168 176 178 178 177 178 177 183 183 183 181 177 176 178 177 178 181 183 183 179 178 181 176 168 158 146 138 134 127 120 113 80 43 39 27 33
161 161 161 162 162 166 168 170 171 173 176 176 178 178 179 176 172 168 165 166 167 167 170 172 172 171 170 165 157 146 131 117 103 95 92 87 85 84 82 74 57 47 53
163 164 163 162 165 166 168 170 170 168 173 176 178 176 172 168 163 156 154 153 152 151 149 146 144 144 149 147 139 133 125 117 108 97 89 80 74 63 56 55 50 49 46
163 163 164 166 170 170 172 173 172 171 174 178 178 170 163 163 161 155 148 141 137 135 133 130 127 120 114 104 111 122 121 119 115 108 101 96 87 81 73 66 57 48 46
155 162 164 168 171 174 175 174 173 172 174 173 169 165 163 161 157 153 146 141 138 132 126 121 117 113 108 107 109 111 118 114 112 111 110 103 96 97 96 88 81 67 55
143 145 152 161 169 173 174 174 171 173 172 169 166 163 160 154 151 145 140 138 135 130 124 122 119 115 109 109 109 108 108 104 101 99 100 101 99 91 97 98 87 77 62
134 137 141 153 165 171 175 175 172 170 170 168 163 160 157 150 145 143 138 134 128 121 117 117 117 116 112 109 112 112 110 105 100 96 93 99 98 76 89 103 98 93 95
115 122 134 146 153 168 176 172 171 171 170 164 156 151 150 143 138 134 130 125 121 118 115 110 109 114 115 107 111 119 120 117 113 106 96 83 87 71 56 96 97 91 78
112 117 125 123 142 166 171 168 165 169 162 151 147 144 140 135 132 126 125 123 119 115 110 105 101 102 108 106 99 107 125 128 125 116 107 95 83 74 60 63 70 59 20
112 114 115 111 122 155 165 163 162 158 149 140 135 133 130 127 126 124 122 122 122 118 115 111 105 99 98 97 94 90 91 106 114 111 108 104 95 83 71 73 63 337 304
116 121 121 114 104 122 153 153 149 146 137 129 125 122 118 116 120 123 124 123 124 123 125 122 115 108 101 92 88 88 88 89 98 98 103 114 125 122 98 92 26 320 38
120 120 117 112 100 89 108 124 132 134 130 125 120 119 118 115 112 112 118 123 127 127 125 121 118 116 113 115 117 114 110 110 111 115 120 124 117 112 113 142 116 63 46
108 110 115 115 108 106 108 117 128 131 126 121 119 117 113 111 102 88 74 91 78 93 120 123 125 126 121 107 101 120 123 124 122 136 144 144 139 123 106 91 70 58 58
109 112 114 114 113 113 113 117 126 129 126 121 121 118 116 113 111 106 87 63 73 72 72 80 101 98 104 111 101 95 95 102 136 153 128 122 116 105 95 88 84 68 49